Regional Weather Roundup
Issued by NWS

Home | Current Version | Previous Version | Text Only | Print | Product List | Glossary On
Versions: 1 2 3 4 5 6 7 8 9 10 11 12 13 14 15 16 17 18 19 20 21 22 23 24 25 26 27
000
ASUS45 KCYS 190310
RWRWY

WYOMING REGIONAL WEATHER ROUNDUP
NATIONAL WEATHER SERVICE CHEYENNE WY
900 PM MDT FRI AUG 18 2017

NOTE:  "FAIR" INDICATES FEW OR NO CLOUDS BELOW 12,000 FEET
WITH NO SIGNIFICANT WEATHER AND/OR OBSTRUCTIONS TO VISIBILITY.

WYZ001-190400-
YELLOWSTONE NATIONAL PARK

CITY           SKY/WX    TMP DP  RH WIND       PRES   REMARKS
LK YELLOWSTONE   N/A     53  39  59 NW3       30.32R
W YELLOWSTONE  NOT AVBL

$$
WYZ002>013-054>058-071-098>099-190400-
NORTHERN WYOMING

CITY           SKY/WX    TMP DP  RH WIND       PRES   REMARKS
JACKSON        FAIR      66  34  30 W3        30.22R
CODY           FAIR      77  36  22 NW7       30.06R
GREYBULL       FAIR      80  39  23 E3        29.94R
WORLAND        FAIR      74  30  19 E10       29.96R
SHERIDAN       FAIR      64  46  52 CALM      29.97R
BUFFALO        FAIR      70  37  29 W8        30.06R
GILLETTE       FAIR      62  39  42 SE5       30.01R
HULETT         FAIR      68  37  32 S10       30.02R
NEWCASTLE      FAIR      72  34  25 SE13G21   30.02S

$$
WYZ014>020-022>026-101>103-190400-
CENTRAL WYOMING

CITY           SKY/WX    TMP DP  RH WIND       PRES   REMARKS
BIG PINEY      FAIR      60  31  33 N12       30.26R
PINEDALE       FAIR      57  32  38 NW5       30.26S
DUBOIS         FAIR      64  27  24 NW8       30.24R
LANDER           N/A    N/A N/A N/A MISG      30.07R
RIVERTON       FAIR      77  30  17 W3        30.08R
CASPER         FAIR      68  35  29 MISG      30.08R
DOUGLAS        FAIR      67  45  45 S7        30.07R

$$
WYZ021-027>030-104>119-190400-
SOUTHERN WYOMING

CITY           SKY/WX    TMP DP  RH WIND       PRES   REMARKS
EVANSTON       FAIR      66  29  24 W8        30.29R
KEMMERER         N/A     63  25  23 W8        30.30R
FORT BRIDGER   FAIR      67  27  22 W10       30.30S
ROCK SPRINGS   FAIR      71  27  19 W12       30.24R
RAWLINS        FAIR      64  33  31 W3        30.21S
SARATOGA       FAIR      66  34  30 S9        30.25R
LARAMIE        FAIR      65  33  30 NW12      30.26S
CHEYENNE       FAIR      67  47  48 SW8       30.20R
TORRINGTON     FAIR      72  46  39 SE8       30.04R
PINE BLUFFS    FAIR      68  46  45 S5        30.14R

$$




USA.gov is the U.S. government's official web portal to all federal, state and local government web resources and services.